Flag for Poland Weather past 2 weeks in Gdańsk, Poland

36 °F

Partly cloudy.

Feels Like: 36 °F
Forecast: 34 / 38 °F
Wind: 2 mph from North

Location: Gdansk-Rebiechowo

Current Time: Nov 26, 2015 at 4:21:31 PM

Latest Report: Nov 26, 2015 at 4:00 PM

Visibility: 4 mi

Pressure: 29.95 "Hg

Humidity: 93%

Dew point: 34 °F

Location of GdańskLocation

Historic Weather in Gdańsk — Graph


Gdańsk temperature yesterday

Maximum temperature yesterday: 32 °F (at 12:00 AM)
Minimum temperature yesterday: 27 °F (at 7:00 AM)
Average temperature yesterday: 31 °F

Past Weeks' High & Low Weather Summary

High55 °F (Nov 11, 3:00 PM)100% (Nov 11, 10:30 PM)30.18 "Hg (Nov 11, 10:30 PM)
Low27 °F (Nov 25, 7:00 AM)65% (Nov 21, 1:30 PM)29.27 "Hg (Nov 18, 6:00 AM)
Average41 °F89%29.72 "Hg
* Reported Nov 11 3:00 PM — Nov 26 3:00 PM, Gdańsk, Weather by CustomWeather, © 2015

Note: Actual official high and low records may vary slightly from our data, if they occured in-between our weather recording intervals... More about our weather records


Gdańsk weather history for previous 24 hours

Time TempWeatherWind HumidityBarometerVisibility
3:00 PM
Thu, Nov 26
37 °FPartly sunny.6 mph87%29.92 "HgN/A
2:30 PM37 °FPartly sunny.6 mph93%29.92 "Hg5 mi
2:00 PM37 °FPartly sunny.6 mph87%29.92 "Hg5 mi
1:30 PM37 °FPartly sunny.6 mph93%29.89 "Hg5 mi
1:00 PM37 °FFog.6 mph93%29.89 "Hg2 mi
12:30 PM37 °FFog.6 mph87%29.89 "Hg2 mi
12:00 PM37 °FFog.5 mph87%29.86 "Hg2 mi
11:30 AM36 °FFog.3 mph93%29.86 "Hg2 mi
11:00 AM36 °FFog.5 mph93%29.86 "Hg2 mi
10:30 AM36 °FFog.5 mph87%29.83 "Hg2 mi
10:00 AM34 °FFog.3 mph93%29.83 "Hg2 mi
9:30 AM34 °FFog.3 mph93%29.83 "Hg2 mi
9:00 AM34 °FFog.3 mph93%29.80 "Hg2 mi
8:30 AM34 °FFog.3 mph87%29.80 "Hg2 mi
8:00 AM34 °FFog.5 mph87%29.80 "Hg2 mi
7:30 AM34 °FFog.3 mph87%29.77 "Hg2 mi
7:00 AM32 °FPassing clouds.3 mph93%29.77 "Hg5 mi
6:30 AM32 °FPartly cloudy.3 mph93%29.74 "Hg5 mi
6:00 AM32 °FPassing clouds.3 mph93%29.74 "Hg5 mi
5:30 AM32 °FPassing clouds.5 mph93%29.74 "Hg5 mi
5:00 AM32 °FPassing clouds.5 mph93%29.74 "Hg4 mi
4:00 AM32 °FPassing clouds.5 mph93%29.74 "Hg4 mi
3:30 AM32 °FLow clouds.5 mph93%29.71 "Hg4 mi
3:00 AM32 °FPassing clouds.3 mph93%29.71 "Hg4 mi
2:30 AM32 °FPassing clouds.2 mph93%29.71 "Hg4 mi
2:00 AM32 °FPassing clouds.3 mph93%29.71 "Hg4 mi
1:30 AM32 °FPassing clouds.3 mph93%29.71 "Hg4 mi
1:00 AM32 °FPassing clouds.3 mph87%29.71 "Hg4 mi
12:00 AM32 °FPartly cloudy.5 mph87%29.71 "Hg4 mi
11:30 PM
Wed, Nov 25
32 °FLight snow. Partly cloudy.5 mph87%29.71 "Hg4 mi
11:00 PM32 °FLight snow. Partly cloudy.3 mph87%29.71 "Hg4 mi
10:30 PM32 °FLight snow. Passing clouds.5 mph87%29.71 "Hg4 mi
10:00 PM30 °FLight snow. Passing clouds.5 mph93%29.71 "Hg4 mi
9:30 PM30 °FLight snow. Passing clouds.6 mph93%29.71 "Hg4 mi
9:00 PM30 °FLight snow. Passing clouds.5 mph93%29.68 "Hg4 mi
8:30 PM32 °FLight snow. Ice fog.6 mph87%29.71 "Hg3 mi
8:00 PM32 °FLight snow. Ice fog.6 mph87%29.68 "Hg3 mi
7:30 PM32 °FLight snow. Passing clouds.6 mph87%29.68 "Hg4 mi
7:00 PM32 °FPassing clouds.6 mph80%29.68 "Hg4 mi
6:30 PM30 °FPassing clouds.5 mph93%29.68 "Hg4 mi
6:00 PM30 °FPassing clouds.6 mph93%29.68 "Hg4 mi
5:30 PM30 °FLight snow. Passing clouds.6 mph93%29.68 "Hg4 mi
5:00 PM30 °FLight snow. Ice fog.7 mph93%29.68 "Hg2 mi
4:30 PM32 °FPassing clouds.7 mph80%29.71 "Hg5 mi
4:00 PM32 °FPassing clouds.6 mph80%29.68 "Hg5 mi
Weather by CustomWeather, © 2015

See weather overviewHow to use our weather pages